TimeHST,TemperatureF,Dew PointF,Humidity,Sea Level PressureIn,VisibilityMPH,Wind Direction,Wind SpeedMPH,Gust SpeedMPH,PrecipitationIn,Events,Conditions,WindDirDegrees,DateUTC
12:01 AM,73.4,64.4,73,30.14,10.0,NE,10.4,-,N/A,,Scattered Clouds,50,2012-05-21 10:01:00
12:53 AM,75.0,66.0,73,30.12,10.0,NE,11.5,-,N/A,,Mostly Cloudy,50,2012-05-21 10:53:00
1:24 AM,75.2,66.2,73,30.12,10.0,ENE,11.5,-,N/A,,Mostly Cloudy,60,2012-05-21 11:24:00
1:32 AM,73.4,66.2,78,30.12,10.0,NE,10.4,-,N/A,,Mostly Cloudy,50,2012-05-21 11:32:00
1:53 AM,73.9,66.0,76,30.10,10.0,NE,11.5,-,N/A,,Mostly Cloudy,50,2012-05-21 11:53:00
2:35 AM,73.4,66.2,78,30.10,10.0,ENE,11.5,-,N/A,,Overcast,60,2012-05-21 12:35:00
2:53 AM,73.9,66.0,76,30.09,10.0,NE,12.7,-,N/A,,Overcast,50,2012-05-21 12:53:00
3:00 AM,73.4,66.2,78,30.10,10.0,NE,11.5,-,N/A,,Mostly Cloudy,50,2012-05-21 13:00:00
3:53 AM,73.9,64.9,73,30.09,10.0,ENE,10.4,-,N/A,,Overcast,60,2012-05-21 13:53:00
4:53 AM,73.9,66.0,76,30.09,10.0,ENE,11.5,-,N/A,,Overcast,60,2012-05-21 14:53:00
5:53 AM,73.9,66.9,79,30.10,10.0,NE,11.5,-,0.01,,Overcast,50,2012-05-21 15:53:00
6:07 AM,73.4,66.2,78,30.11,10.0,NE,11.5,-,N/A,,Mostly Cloudy,50,2012-05-21 16:07:00
6:14 AM,73.4,66.2,78,30.11,10.0,ENE,11.5,-,N/A,,Mostly Cloudy,70,2012-05-21 16:14:00
6:27 AM,73.4,66.2,78,30.11,10.0,ENE,11.5,-,N/A,,Mostly Cloudy,60,2012-05-21 16:27:00
6:53 AM,75.0,66.9,76,30.12,10.0,ENE,11.5,-,N/A,,Mostly Cloudy,60,2012-05-21 16:53:00
7:23 AM,75.2,66.2,73,30.14,10.0,ENE,11.5,-,N/A,,Scattered Clouds,60,2012-05-21 17:23:00
7:53 AM,77.0,66.9,71,30.14,10.0,NE,11.5,-,N/A,,Mostly Cloudy,50,2012-05-21 17:53:00
8:38 AM,77.0,66.2,69,30.15,10.0,NE,11.5,-,N/A,,Mostly Cloudy,50,2012-05-21 18:38:00
8:53 AM,79.0,66.9,66,30.15,10.0,ENE,9.2,-,N/A,,Mostly Cloudy,60,2012-05-21 18:53:00
9:16 AM,78.8,66.2,65,30.16,10.0,ENE,10.4,-,N/A,,Mostly Cloudy,60,2012-05-21 19:16:00
9:30 AM,78.8,66.2,65,30.16,10.0,ENE,10.4,-,N/A,,Overcast,60,2012-05-21 19:30:00
9:46 AM,78.8,66.2,65,30.16,10.0,ENE,11.5,-,N/A,,Overcast,70,2012-05-21 19:46:00
9:53 AM,79.0,66.9,66,30.16,10.0,ENE,12.7,-,N/A,,Overcast,60,2012-05-21 19:53:00
10:41 AM,80.6,68.0,65,30.16,10.0,NE,9.2,-,N/A,,Mostly Cloudy,50,2012-05-21 20:41:00
10:53 AM,81.0,68.0,65,30.16,10.0,ENE,11.5,-,N/A,,Mostly Cloudy,60,2012-05-21 20:53:00
11:53 AM,80.1,66.9,64,30.16,10.0,ENE,11.5,-,N/A,,Mostly Cloudy,60,2012-05-21 21:53:00
12:53 PM,82.0,68.0,62,30.14,10.0,ENE,11.5,-,N/A,,Scattered Clouds,60,2012-05-21 22:53:00
1:53 PM,81.0,68.0,65,30.14,10.0,ENE,10.4,-,N/A,,Scattered Clouds,60,2012-05-21 23:53:00
2:53 PM,81.0,68.0,65,30.12,10.0,ENE,12.7,-,N/A,,Partly Cloudy,60,2012-05-22 00:53:00
3:53 PM,79.0,68.0,69,30.11,10.0,NE,9.2,-,N/A,,Scattered Clouds,50,2012-05-22 01:53:00
4:53 PM,79.0,68.0,69,30.10,10.0,NE,11.5,-,N/A,,Scattered Clouds,50,2012-05-22 02:53:00
5:53 PM,78.1,68.0,71,30.11,10.0,ENE,10.4,-,N/A,,Partly Cloudy,60,2012-05-22 03:53:00
6:53 PM,75.9,66.9,74,30.12,10.0,NE,12.7,-,N/A,,Partly Cloudy,50,2012-05-22 04:53:00
7:53 PM,75.0,66.9,76,30.14,10.0,NE,13.8,-,N/A,,Scattered Clouds,50,2012-05-22 05:53:00
8:03 PM,75.2,66.2,73,30.15,10.0,NE,15.0,-,N/A,,Mostly Cloudy,50,2012-05-22 06:03:00
8:33 PM,75.2,66.2,73,30.15,10.0,NE,15.0,-,N/A,,Scattered Clouds,50,2012-05-22 06:33:00
8:53 PM,75.0,66.9,76,30.15,10.0,ENE,17.3,-,N/A,,Partly Cloudy,60,2012-05-22 06:53:00
9:53 PM,75.0,66.9,76,30.16,10.0,ENE,15.0,-,N/A,,Partly Cloudy,60,2012-05-22 07:53:00
10:46 PM,75.2,66.2,73,30.18,10.0,ENE,13.8,-,N/A,,Mostly Cloudy,60,2012-05-22 08:46:00
10:53 PM,75.0,66.9,76,30.17,10.0,NE,16.1,-,N/A,,Mostly Cloudy,50,2012-05-22 08:53:00
11:15 PM,75.2,66.2,73,30.18,10.0,ENE,15.0,-,N/A,,Mostly Cloudy,60,2012-05-22 09:15:00
11:53 PM,75.0,66.9,76,30.16,10.0,ENE,15.0,-,N/A,,Overcast,70,2012-05-22 09:53:00